<?xml version="1.0"?>
<gpx xmlns="http://www.topografix.com/GPX/1/1" xmlns:xsi="http://www.w3.org/2001/XMLSchema-instance" version="1.1" creator="GPX RubyGem 1.0.0 -- http://dougfales.github.io/gpx/" xsi:schemaLocation="http://www.topografix.com/GPX/1/1 http://www.topografix.com/GPX/1/1/gpx.xsd">
  <metadata>
    <name/>
    <time>2026-05-07T13:51:14+00:00</time>
    <bound minlat="90.0" minlon="180.0" maxlat="-90.0" maxlon="-180.0"/>
  </metadata>
  <trk>
    <name/>
    <trkseg>
      <trkpt lat="47.494905" lon="10.136979">
        <time>1970-01-01T00:00:00+00:00</time>
        <ele>1044.0</ele>
      </trkpt>
      <trkpt lat="47.494971" lon="10.1369">
        <time>1970-01-01T00:00:00+00:00</time>
        <ele>1044.0</ele>
      </trkpt>
      <trkpt lat="47.495079" lon="10.136702">
        <time>1970-01-01T00:00:00+00:00</time>
        <ele>1044.0</ele>
      </trkpt>
      <trkpt lat="47.49513" lon="10.13676">
        <time>1970-01-01T00:00:00+00:00</time>
        <ele>1044.0</ele>
      </trkpt>
      <trkpt lat="47.495483" lon="10.136422">
        <time>1970-01-01T00:00:00+00:00</time>
        <ele>1045.0</ele>
      </trkpt>
      <trkpt lat="47.495645" lon="10.136266">
        <time>1970-01-01T00:00:00+00:00</time>
        <ele>1045.0</ele>
      </trkpt>
      <trkpt lat="47.496581" lon="10.13537">
        <time>1970-01-01T00:00:00+00:00</time>
        <ele>1048.0</ele>
      </trkpt>
      <trkpt lat="47.496808" lon="10.135062">
        <time>1970-01-01T00:00:00+00:00</time>
        <ele>1050.0</ele>
      </trkpt>
      <trkpt lat="47.496942" lon="10.134758">
        <time>1970-01-01T00:00:00+00:00</time>
        <ele>1052.0</ele>
      </trkpt>
      <trkpt lat="47.497037" lon="10.134276">
        <time>1970-01-01T00:00:00+00:00</time>
        <ele>1059.0</ele>
      </trkpt>
      <trkpt lat="47.497179" lon="10.133962">
        <time>1970-01-01T00:00:00+00:00</time>
        <ele>1066.0</ele>
      </trkpt>
      <trkpt lat="47.497221" lon="10.133607">
        <time>1970-01-01T00:00:00+00:00</time>
        <ele>1069.0</ele>
      </trkpt>
      <trkpt lat="47.497193" lon="10.133355">
        <time>1970-01-01T00:00:00+00:00</time>
        <ele>1069.0</ele>
      </trkpt>
      <trkpt lat="47.497246" lon="10.132853">
        <time>1970-01-01T00:00:00+00:00</time>
        <ele>1075.0</ele>
      </trkpt>
      <trkpt lat="47.497189" lon="10.132037">
        <time>1970-01-01T00:00:00+00:00</time>
        <ele>1087.0</ele>
      </trkpt>
      <trkpt lat="47.497112" lon="10.131807">
        <time>1970-01-01T00:00:00+00:00</time>
        <ele>1090.0</ele>
      </trkpt>
      <trkpt lat="47.496903" lon="10.130729">
        <time>1970-01-01T00:00:00+00:00</time>
        <ele>1117.0</ele>
      </trkpt>
      <trkpt lat="47.4968" lon="10.130363">
        <time>1970-01-01T00:00:00+00:00</time>
        <ele>1122.0</ele>
      </trkpt>
      <trkpt lat="47.496691" lon="10.129227">
        <time>1970-01-01T00:00:00+00:00</time>
        <ele>1150.0</ele>
      </trkpt>
      <trkpt lat="47.496635" lon="10.128866">
        <time>1970-01-01T00:00:00+00:00</time>
        <ele>1156.0</ele>
      </trkpt>
      <trkpt lat="47.49661" lon="10.128296">
        <time>1970-01-01T00:00:00+00:00</time>
        <ele>1170.0</ele>
      </trkpt>
      <trkpt lat="47.496551" lon="10.128089">
        <time>1970-01-01T00:00:00+00:00</time>
        <ele>1177.0</ele>
      </trkpt>
      <trkpt lat="47.496486" lon="10.127752">
        <time>1970-01-01T00:00:00+00:00</time>
        <ele>1187.0</ele>
      </trkpt>
      <trkpt lat="47.496336" lon="10.127075">
        <time>1970-01-01T00:00:00+00:00</time>
        <ele>1196.0</ele>
      </trkpt>
      <trkpt lat="47.496357" lon="10.126521">
        <time>1970-01-01T00:00:00+00:00</time>
        <ele>1204.0</ele>
      </trkpt>
      <trkpt lat="47.496287" lon="10.126044">
        <time>1970-01-01T00:00:00+00:00</time>
        <ele>1210.0</ele>
      </trkpt>
      <trkpt lat="47.496365" lon="10.125411">
        <time>1970-01-01T00:00:00+00:00</time>
        <ele>1220.0</ele>
      </trkpt>
      <trkpt lat="47.4963" lon="10.124931">
        <time>1970-01-01T00:00:00+00:00</time>
        <ele>1226.0</ele>
      </trkpt>
      <trkpt lat="47.496259" lon="10.124446">
        <time>1970-01-01T00:00:00+00:00</time>
        <ele>1233.0</ele>
      </trkpt>
      <trkpt lat="47.496259" lon="10.124142">
        <time>1970-01-01T00:00:00+00:00</time>
        <ele>1236.0</ele>
      </trkpt>
      <trkpt lat="47.496203" lon="10.12385">
        <time>1970-01-01T00:00:00+00:00</time>
        <ele>1238.0</ele>
      </trkpt>
      <trkpt lat="47.496221" lon="10.122797">
        <time>1970-01-01T00:00:00+00:00</time>
        <ele>1247.0</ele>
      </trkpt>
      <trkpt lat="47.496161" lon="10.122035">
        <time>1970-01-01T00:00:00+00:00</time>
        <ele>1251.0</ele>
      </trkpt>
      <trkpt lat="47.496171" lon="10.121855">
        <time>1970-01-01T00:00:00+00:00</time>
        <ele>1252.0</ele>
      </trkpt>
      <trkpt lat="47.496306" lon="10.121242">
        <time>1970-01-01T00:00:00+00:00</time>
        <ele>1257.0</ele>
      </trkpt>
      <trkpt lat="47.496136" lon="10.120489">
        <time>1970-01-01T00:00:00+00:00</time>
        <ele>1258.0</ele>
      </trkpt>
      <trkpt lat="47.496189" lon="10.118972">
        <time>1970-01-01T00:00:00+00:00</time>
        <ele>1274.0</ele>
      </trkpt>
      <trkpt lat="47.496245" lon="10.118872">
        <time>1970-01-01T00:00:00+00:00</time>
        <ele>1278.0</ele>
      </trkpt>
      <trkpt lat="47.49644" lon="10.119034">
        <time>1970-01-01T00:00:00+00:00</time>
        <ele>1284.0</ele>
      </trkpt>
      <trkpt lat="47.496482" lon="10.119458">
        <time>1970-01-01T00:00:00+00:00</time>
        <ele>1285.0</ele>
      </trkpt>
      <trkpt lat="47.496581" lon="10.119683">
        <time>1970-01-01T00:00:00+00:00</time>
        <ele>1290.0</ele>
      </trkpt>
      <trkpt lat="47.496769" lon="10.119992">
        <time>1970-01-01T00:00:00+00:00</time>
        <ele>1299.0</ele>
      </trkpt>
      <trkpt lat="47.496885" lon="10.120254">
        <time>1970-01-01T00:00:00+00:00</time>
        <ele>1303.0</ele>
      </trkpt>
      <trkpt lat="47.496956" lon="10.120248">
        <time>1970-01-01T00:00:00+00:00</time>
        <ele>1307.0</ele>
      </trkpt>
      <trkpt lat="47.497027" lon="10.120002">
        <time>1970-01-01T00:00:00+00:00</time>
        <ele>1311.0</ele>
      </trkpt>
      <trkpt lat="47.497352" lon="10.119312">
        <time>1970-01-01T00:00:00+00:00</time>
        <ele>1326.0</ele>
      </trkpt>
      <trkpt lat="47.497525" lon="10.118768">
        <time>1970-01-01T00:00:00+00:00</time>
        <ele>1333.0</ele>
      </trkpt>
      <trkpt lat="47.497667" lon="10.118407">
        <time>1970-01-01T00:00:00+00:00</time>
        <ele>1339.0</ele>
      </trkpt>
      <trkpt lat="47.497802" lon="10.118301">
        <time>1970-01-01T00:00:00+00:00</time>
        <ele>1345.0</ele>
      </trkpt>
      <trkpt lat="47.497875" lon="10.118375">
        <time>1970-01-01T00:00:00+00:00</time>
        <ele>1349.0</ele>
      </trkpt>
      <trkpt lat="47.497909" lon="10.118445">
        <time>1970-01-01T00:00:00+00:00</time>
        <ele>1351.0</ele>
      </trkpt>
      <trkpt lat="47.497952" lon="10.118621">
        <time>1970-01-01T00:00:00+00:00</time>
        <ele>1356.0</ele>
      </trkpt>
      <trkpt lat="47.498034" lon="10.118753">
        <time>1970-01-01T00:00:00+00:00</time>
        <ele>1361.0</ele>
      </trkpt>
      <trkpt lat="47.498095" lon="10.118892">
        <time>1970-01-01T00:00:00+00:00</time>
        <ele>1365.0</ele>
      </trkpt>
      <trkpt lat="47.498058" lon="10.119225">
        <time>1970-01-01T00:00:00+00:00</time>
        <ele>1365.0</ele>
      </trkpt>
      <trkpt lat="47.498094" lon="10.119456">
        <time>1970-01-01T00:00:00+00:00</time>
        <ele>1366.0</ele>
      </trkpt>
      <trkpt lat="47.498158" lon="10.119725">
        <time>1970-01-01T00:00:00+00:00</time>
        <ele>1367.0</ele>
      </trkpt>
      <trkpt lat="47.498205" lon="10.119833">
        <time>1970-01-01T00:00:00+00:00</time>
        <ele>1366.0</ele>
      </trkpt>
      <trkpt lat="47.49825" lon="10.119856">
        <time>1970-01-01T00:00:00+00:00</time>
        <ele>1365.0</ele>
      </trkpt>
      <trkpt lat="47.49843" lon="10.12006">
        <time>1970-01-01T00:00:00+00:00</time>
        <ele>1361.0</ele>
      </trkpt>
      <trkpt lat="47.498602" lon="10.120455">
        <time>1970-01-01T00:00:00+00:00</time>
        <ele>1364.0</ele>
      </trkpt>
      <trkpt lat="47.498745" lon="10.121086">
        <time>1970-01-01T00:00:00+00:00</time>
        <ele>1366.0</ele>
      </trkpt>
      <trkpt lat="47.498819" lon="10.12119">
        <time>1970-01-01T00:00:00+00:00</time>
        <ele>1369.0</ele>
      </trkpt>
      <trkpt lat="47.498911" lon="10.121112">
        <time>1970-01-01T00:00:00+00:00</time>
        <ele>1372.0</ele>
      </trkpt>
      <trkpt lat="47.498936" lon="10.120929">
        <time>1970-01-01T00:00:00+00:00</time>
        <ele>1373.0</ele>
      </trkpt>
      <trkpt lat="47.49896" lon="10.119856">
        <time>1970-01-01T00:00:00+00:00</time>
        <ele>1385.0</ele>
      </trkpt>
      <trkpt lat="47.499003" lon="10.119647">
        <time>1970-01-01T00:00:00+00:00</time>
        <ele>1389.0</ele>
      </trkpt>
      <trkpt lat="47.499257" lon="10.119375">
        <time>1970-01-01T00:00:00+00:00</time>
        <ele>1408.0</ele>
      </trkpt>
      <trkpt lat="47.499353" lon="10.119045">
        <time>1970-01-01T00:00:00+00:00</time>
        <ele>1413.0</ele>
      </trkpt>
      <trkpt lat="47.499522" lon="10.118689">
        <time>1970-01-01T00:00:00+00:00</time>
        <ele>1419.0</ele>
      </trkpt>
      <trkpt lat="47.49971" lon="10.118501">
        <time>1970-01-01T00:00:00+00:00</time>
        <ele>1427.0</ele>
      </trkpt>
      <trkpt lat="47.499957" lon="10.118438">
        <time>1970-01-01T00:00:00+00:00</time>
        <ele>1433.0</ele>
      </trkpt>
      <trkpt lat="47.500003" lon="10.118516">
        <time>1970-01-01T00:00:00+00:00</time>
        <ele>1435.0</ele>
      </trkpt>
      <trkpt lat="47.499996" lon="10.118972">
        <time>1970-01-01T00:00:00+00:00</time>
        <ele>1440.0</ele>
      </trkpt>
      <trkpt lat="47.500141" lon="10.11928">
        <time>1970-01-01T00:00:00+00:00</time>
        <ele>1448.0</ele>
      </trkpt>
      <trkpt lat="47.500194" lon="10.119448">
        <time>1970-01-01T00:00:00+00:00</time>
        <ele>1453.0</ele>
      </trkpt>
      <trkpt lat="47.500251" lon="10.119453">
        <time>1970-01-01T00:00:00+00:00</time>
        <ele>1456.0</ele>
      </trkpt>
      <trkpt lat="47.50042" lon="10.119312">
        <time>1970-01-01T00:00:00+00:00</time>
        <ele>1458.0</ele>
      </trkpt>
      <trkpt lat="47.500611" lon="10.119239">
        <time>1970-01-01T00:00:00+00:00</time>
        <ele>1465.0</ele>
      </trkpt>
      <trkpt lat="47.500738" lon="10.119066">
        <time>1970-01-01T00:00:00+00:00</time>
        <ele>1469.0</ele>
      </trkpt>
      <trkpt lat="47.500876" lon="10.119108">
        <time>1970-01-01T00:00:00+00:00</time>
        <ele>1476.0</ele>
      </trkpt>
      <trkpt lat="47.500954" lon="10.118987">
        <time>1970-01-01T00:00:00+00:00</time>
        <ele>1476.0</ele>
      </trkpt>
      <trkpt lat="47.500988" lon="10.118661">
        <time>1970-01-01T00:00:00+00:00</time>
        <ele>1473.0</ele>
      </trkpt>
      <trkpt lat="47.501081" lon="10.118674">
        <time>1970-01-01T00:00:00+00:00</time>
        <ele>1476.0</ele>
      </trkpt>
      <trkpt lat="47.501421" lon="10.118802">
        <time>1970-01-01T00:00:00+00:00</time>
        <ele>1487.0</ele>
      </trkpt>
      <trkpt lat="47.501773" lon="10.118821">
        <time>1970-01-01T00:00:00+00:00</time>
        <ele>1495.0</ele>
      </trkpt>
      <trkpt lat="47.501867" lon="10.118737">
        <time>1970-01-01T00:00:00+00:00</time>
        <ele>1495.0</ele>
      </trkpt>
      <trkpt lat="47.502452" lon="10.1187">
        <time>1970-01-01T00:00:00+00:00</time>
        <ele>1509.0</ele>
      </trkpt>
      <trkpt lat="47.502594" lon="10.118813">
        <time>1970-01-01T00:00:00+00:00</time>
        <ele>1515.0</ele>
      </trkpt>
      <trkpt lat="47.502476" lon="10.119449">
        <time>1970-01-01T00:00:00+00:00</time>
        <ele>1526.0</ele>
      </trkpt>
      <trkpt lat="47.502527" lon="10.119453">
        <time>1970-01-01T00:00:00+00:00</time>
        <ele>1528.0</ele>
      </trkpt>
      <trkpt lat="47.502707" lon="10.119357">
        <time>1970-01-01T00:00:00+00:00</time>
        <ele>1528.0</ele>
      </trkpt>
      <trkpt lat="47.5031" lon="10.119507">
        <time>1970-01-01T00:00:00+00:00</time>
        <ele>1544.0</ele>
      </trkpt>
      <trkpt lat="47.503286" lon="10.119491">
        <time>1970-01-01T00:00:00+00:00</time>
        <ele>1548.0</ele>
      </trkpt>
      <trkpt lat="47.503445" lon="10.119332">
        <time>1970-01-01T00:00:00+00:00</time>
        <ele>1549.0</ele>
      </trkpt>
      <trkpt lat="47.503572" lon="10.119307">
        <time>1970-01-01T00:00:00+00:00</time>
        <ele>1555.0</ele>
      </trkpt>
      <trkpt lat="47.503702" lon="10.119131">
        <time>1970-01-01T00:00:00+00:00</time>
        <ele>1556.0</ele>
      </trkpt>
      <trkpt lat="47.503818" lon="10.118863">
        <time>1970-01-01T00:00:00+00:00</time>
        <ele>1555.0</ele>
      </trkpt>
      <trkpt lat="47.504002" lon="10.118661">
        <time>1970-01-01T00:00:00+00:00</time>
        <ele>1558.0</ele>
      </trkpt>
      <trkpt lat="47.504194" lon="10.119151">
        <time>1970-01-01T00:00:00+00:00</time>
        <ele>1575.0</ele>
      </trkpt>
      <trkpt lat="47.504139" lon="10.119223">
        <time>1970-01-01T00:00:00+00:00</time>
        <ele>1576.0</ele>
      </trkpt>
      <trkpt lat="47.504219" lon="10.119252">
        <time>1970-01-01T00:00:00+00:00</time>
        <ele>1578.0</ele>
      </trkpt>
      <trkpt lat="47.504235" lon="10.119424">
        <time>1970-01-01T00:00:00+00:00</time>
        <ele>1583.0</ele>
      </trkpt>
      <trkpt lat="47.504307" lon="10.119487">
        <time>1970-01-01T00:00:00+00:00</time>
        <ele>1587.0</ele>
      </trkpt>
      <trkpt lat="47.504389" lon="10.119817">
        <time>1970-01-01T00:00:00+00:00</time>
        <ele>1599.0</ele>
      </trkpt>
      <trkpt lat="47.504505" lon="10.119971">
        <time>1970-01-01T00:00:00+00:00</time>
        <ele>1606.0</ele>
      </trkpt>
      <trkpt lat="47.504524" lon="10.120168">
        <time>1970-01-01T00:00:00+00:00</time>
        <ele>1613.0</ele>
      </trkpt>
      <trkpt lat="47.504597" lon="10.120258">
        <time>1970-01-01T00:00:00+00:00</time>
        <ele>1618.0</ele>
      </trkpt>
      <trkpt lat="47.504566" lon="10.120466">
        <time>1970-01-01T00:00:00+00:00</time>
        <ele>1623.0</ele>
      </trkpt>
      <trkpt lat="47.504645" lon="10.120679">
        <time>1970-01-01T00:00:00+00:00</time>
        <ele>1632.0</ele>
      </trkpt>
      <trkpt lat="47.504827" lon="10.120774">
        <time>1970-01-01T00:00:00+00:00</time>
        <ele>1640.0</ele>
      </trkpt>
      <trkpt lat="47.504965" lon="10.121013">
        <time>1970-01-01T00:00:00+00:00</time>
        <ele>1650.0</ele>
      </trkpt>
      <trkpt lat="47.505163" lon="10.121422">
        <time>1970-01-01T00:00:00+00:00</time>
        <ele>1667.0</ele>
      </trkpt>
      <trkpt lat="47.505205" lon="10.121555">
        <time>1970-01-01T00:00:00+00:00</time>
        <ele>1671.0</ele>
      </trkpt>
      <trkpt lat="47.505288" lon="10.121672">
        <time>1970-01-01T00:00:00+00:00</time>
        <ele>1676.0</ele>
      </trkpt>
      <trkpt lat="47.505511" lon="10.122184">
        <time>1970-01-01T00:00:00+00:00</time>
        <ele>1704.0</ele>
      </trkpt>
      <trkpt lat="47.505693" lon="10.122367">
        <time>1970-01-01T00:00:00+00:00</time>
        <ele>1714.0</ele>
      </trkpt>
      <trkpt lat="47.505804" lon="10.12254">
        <time>1970-01-01T00:00:00+00:00</time>
        <ele>1719.0</ele>
      </trkpt>
      <trkpt lat="47.505967" lon="10.122698">
        <time>1970-01-01T00:00:00+00:00</time>
        <ele>1723.0</ele>
      </trkpt>
      <trkpt lat="47.506056" lon="10.12282">
        <time>1970-01-01T00:00:00+00:00</time>
        <ele>1724.0</ele>
      </trkpt>
      <trkpt lat="47.506106" lon="10.122963">
        <time>1970-01-01T00:00:00+00:00</time>
        <ele>1719.0</ele>
      </trkpt>
      <trkpt lat="47.506372" lon="10.123222">
        <time>1970-01-01T00:00:00+00:00</time>
        <ele>1717.0</ele>
      </trkpt>
      <trkpt lat="47.506534" lon="10.123438">
        <time>1970-01-01T00:00:00+00:00</time>
        <ele>1720.0</ele>
      </trkpt>
      <trkpt lat="47.506665" lon="10.123474">
        <time>1970-01-01T00:00:00+00:00</time>
        <ele>1724.0</ele>
      </trkpt>
      <trkpt lat="47.50672" lon="10.123593">
        <time>1970-01-01T00:00:00+00:00</time>
        <ele>1723.0</ele>
      </trkpt>
      <trkpt lat="47.506759" lon="10.123948">
        <time>1970-01-01T00:00:00+00:00</time>
        <ele>1714.0</ele>
      </trkpt>
      <trkpt lat="47.5068" lon="10.123994">
        <time>1970-01-01T00:00:00+00:00</time>
        <ele>1713.0</ele>
      </trkpt>
      <trkpt lat="47.506881" lon="10.123981">
        <time>1970-01-01T00:00:00+00:00</time>
        <ele>1714.0</ele>
      </trkpt>
      <trkpt lat="47.506934" lon="10.12408">
        <time>1970-01-01T00:00:00+00:00</time>
        <ele>1710.0</ele>
      </trkpt>
      <trkpt lat="47.506931" lon="10.124377">
        <time>1970-01-01T00:00:00+00:00</time>
        <ele>1700.0</ele>
      </trkpt>
      <trkpt lat="47.506967" lon="10.124711">
        <time>1970-01-01T00:00:00+00:00</time>
        <ele>1692.0</ele>
      </trkpt>
      <trkpt lat="47.507042" lon="10.124811">
        <time>1970-01-01T00:00:00+00:00</time>
        <ele>1691.0</ele>
      </trkpt>
      <trkpt lat="47.507012" lon="10.124956">
        <time>1970-01-01T00:00:00+00:00</time>
        <ele>1686.0</ele>
      </trkpt>
      <trkpt lat="47.507041" lon="10.125253">
        <time>1970-01-01T00:00:00+00:00</time>
        <ele>1681.0</ele>
      </trkpt>
      <trkpt lat="47.507163" lon="10.125697">
        <time>1970-01-01T00:00:00+00:00</time>
        <ele>1677.0</ele>
      </trkpt>
      <trkpt lat="47.507364" lon="10.125864">
        <time>1970-01-01T00:00:00+00:00</time>
        <ele>1677.0</ele>
      </trkpt>
      <trkpt lat="47.507392" lon="10.126029">
        <time>1970-01-01T00:00:00+00:00</time>
        <ele>1676.0</ele>
      </trkpt>
      <trkpt lat="47.508021" lon="10.127793">
        <time>1970-01-01T00:00:00+00:00</time>
        <ele>1689.0</ele>
      </trkpt>
      <trkpt lat="47.508089" lon="10.12789">
        <time>1970-01-01T00:00:00+00:00</time>
        <ele>1693.0</ele>
      </trkpt>
      <trkpt lat="47.508171" lon="10.127928">
        <time>1970-01-01T00:00:00+00:00</time>
        <ele>1698.0</ele>
      </trkpt>
      <trkpt lat="47.508317" lon="10.128147">
        <time>1970-01-01T00:00:00+00:00</time>
        <ele>1706.0</ele>
      </trkpt>
      <trkpt lat="47.508331" lon="10.12823">
        <time>1970-01-01T00:00:00+00:00</time>
        <ele>1705.0</ele>
      </trkpt>
      <trkpt lat="47.508402" lon="10.128249">
        <time>1970-01-01T00:00:00+00:00</time>
        <ele>1708.0</ele>
      </trkpt>
      <trkpt lat="47.508763" lon="10.128755">
        <time>1970-01-01T00:00:00+00:00</time>
        <ele>1717.0</ele>
      </trkpt>
      <trkpt lat="47.508805" lon="10.128835">
        <time>1970-01-01T00:00:00+00:00</time>
        <ele>1718.0</ele>
      </trkpt>
      <trkpt lat="47.508875" lon="10.128845">
        <time>1970-01-01T00:00:00+00:00</time>
        <ele>1722.0</ele>
      </trkpt>
      <trkpt lat="47.509107" lon="10.129293">
        <time>1970-01-01T00:00:00+00:00</time>
        <ele>1728.0</ele>
      </trkpt>
      <trkpt lat="47.509332" lon="10.129611">
        <time>1970-01-01T00:00:00+00:00</time>
        <ele>1730.0</ele>
      </trkpt>
      <trkpt lat="47.509662" lon="10.129741">
        <time>1970-01-01T00:00:00+00:00</time>
        <ele>1733.0</ele>
      </trkpt>
      <trkpt lat="47.51078" lon="10.131124">
        <time>1970-01-01T00:00:00+00:00</time>
        <ele>1751.0</ele>
      </trkpt>
      <trkpt lat="47.510797" lon="10.131177">
        <time>1970-01-01T00:00:00+00:00</time>
        <ele>1751.0</ele>
      </trkpt>
      <trkpt lat="47.510797" lon="10.131177">
        <time>1970-01-01T00:00:00+00:00</time>
        <ele>1751.0</ele>
      </trkpt>
      <trkpt lat="47.51078" lon="10.131124">
        <time>1970-01-01T00:00:00+00:00</time>
        <ele>1751.0</ele>
      </trkpt>
      <trkpt lat="47.509662" lon="10.129741">
        <time>1970-01-01T00:00:00+00:00</time>
        <ele>1733.0</ele>
      </trkpt>
      <trkpt lat="47.509332" lon="10.129611">
        <time>1970-01-01T00:00:00+00:00</time>
        <ele>1730.0</ele>
      </trkpt>
      <trkpt lat="47.509107" lon="10.129293">
        <time>1970-01-01T00:00:00+00:00</time>
        <ele>1728.0</ele>
      </trkpt>
      <trkpt lat="47.508875" lon="10.128845">
        <time>1970-01-01T00:00:00+00:00</time>
        <ele>1722.0</ele>
      </trkpt>
      <trkpt lat="47.508805" lon="10.128835">
        <time>1970-01-01T00:00:00+00:00</time>
        <ele>1718.0</ele>
      </trkpt>
      <trkpt lat="47.508763" lon="10.128755">
        <time>1970-01-01T00:00:00+00:00</time>
        <ele>1717.0</ele>
      </trkpt>
      <trkpt lat="47.508402" lon="10.128249">
        <time>1970-01-01T00:00:00+00:00</time>
        <ele>1708.0</ele>
      </trkpt>
      <trkpt lat="47.508331" lon="10.12823">
        <time>1970-01-01T00:00:00+00:00</time>
        <ele>1705.0</ele>
      </trkpt>
      <trkpt lat="47.508317" lon="10.128147">
        <time>1970-01-01T00:00:00+00:00</time>
        <ele>1706.0</ele>
      </trkpt>
      <trkpt lat="47.508171" lon="10.127928">
        <time>1970-01-01T00:00:00+00:00</time>
        <ele>1698.0</ele>
      </trkpt>
      <trkpt lat="47.508089" lon="10.12789">
        <time>1970-01-01T00:00:00+00:00</time>
        <ele>1693.0</ele>
      </trkpt>
      <trkpt lat="47.508021" lon="10.127793">
        <time>1970-01-01T00:00:00+00:00</time>
        <ele>1689.0</ele>
      </trkpt>
      <trkpt lat="47.507392" lon="10.126029">
        <time>1970-01-01T00:00:00+00:00</time>
        <ele>1676.0</ele>
      </trkpt>
      <trkpt lat="47.507364" lon="10.125864">
        <time>1970-01-01T00:00:00+00:00</time>
        <ele>1677.0</ele>
      </trkpt>
      <trkpt lat="47.507163" lon="10.125697">
        <time>1970-01-01T00:00:00+00:00</time>
        <ele>1677.0</ele>
      </trkpt>
      <trkpt lat="47.507041" lon="10.125253">
        <time>1970-01-01T00:00:00+00:00</time>
        <ele>1681.0</ele>
      </trkpt>
      <trkpt lat="47.507012" lon="10.124956">
        <time>1970-01-01T00:00:00+00:00</time>
        <ele>1686.0</ele>
      </trkpt>
      <trkpt lat="47.507042" lon="10.124811">
        <time>1970-01-01T00:00:00+00:00</time>
        <ele>1691.0</ele>
      </trkpt>
      <trkpt lat="47.506967" lon="10.124711">
        <time>1970-01-01T00:00:00+00:00</time>
        <ele>1692.0</ele>
      </trkpt>
      <trkpt lat="47.506931" lon="10.124377">
        <time>1970-01-01T00:00:00+00:00</time>
        <ele>1700.0</ele>
      </trkpt>
      <trkpt lat="47.506934" lon="10.12408">
        <time>1970-01-01T00:00:00+00:00</time>
        <ele>1710.0</ele>
      </trkpt>
      <trkpt lat="47.506881" lon="10.123981">
        <time>1970-01-01T00:00:00+00:00</time>
        <ele>1714.0</ele>
      </trkpt>
      <trkpt lat="47.5068" lon="10.123994">
        <time>1970-01-01T00:00:00+00:00</time>
        <ele>1713.0</ele>
      </trkpt>
      <trkpt lat="47.506759" lon="10.123948">
        <time>1970-01-01T00:00:00+00:00</time>
        <ele>1714.0</ele>
      </trkpt>
      <trkpt lat="47.50672" lon="10.123593">
        <time>1970-01-01T00:00:00+00:00</time>
        <ele>1723.0</ele>
      </trkpt>
      <trkpt lat="47.506665" lon="10.123474">
        <time>1970-01-01T00:00:00+00:00</time>
        <ele>1724.0</ele>
      </trkpt>
      <trkpt lat="47.506534" lon="10.123438">
        <time>1970-01-01T00:00:00+00:00</time>
        <ele>1720.0</ele>
      </trkpt>
      <trkpt lat="47.506372" lon="10.123222">
        <time>1970-01-01T00:00:00+00:00</time>
        <ele>1717.0</ele>
      </trkpt>
      <trkpt lat="47.506106" lon="10.122963">
        <time>1970-01-01T00:00:00+00:00</time>
        <ele>1719.0</ele>
      </trkpt>
      <trkpt lat="47.506056" lon="10.12282">
        <time>1970-01-01T00:00:00+00:00</time>
        <ele>1724.0</ele>
      </trkpt>
      <trkpt lat="47.505967" lon="10.122698">
        <time>1970-01-01T00:00:00+00:00</time>
        <ele>1723.0</ele>
      </trkpt>
      <trkpt lat="47.505804" lon="10.12254">
        <time>1970-01-01T00:00:00+00:00</time>
        <ele>1719.0</ele>
      </trkpt>
      <trkpt lat="47.505693" lon="10.122367">
        <time>1970-01-01T00:00:00+00:00</time>
        <ele>1714.0</ele>
      </trkpt>
      <trkpt lat="47.505511" lon="10.122184">
        <time>1970-01-01T00:00:00+00:00</time>
        <ele>1704.0</ele>
      </trkpt>
      <trkpt lat="47.505288" lon="10.121672">
        <time>1970-01-01T00:00:00+00:00</time>
        <ele>1676.0</ele>
      </trkpt>
      <trkpt lat="47.505205" lon="10.121555">
        <time>1970-01-01T00:00:00+00:00</time>
        <ele>1671.0</ele>
      </trkpt>
      <trkpt lat="47.505163" lon="10.121422">
        <time>1970-01-01T00:00:00+00:00</time>
        <ele>1667.0</ele>
      </trkpt>
      <trkpt lat="47.504965" lon="10.121013">
        <time>1970-01-01T00:00:00+00:00</time>
        <ele>1650.0</ele>
      </trkpt>
      <trkpt lat="47.504827" lon="10.120774">
        <time>1970-01-01T00:00:00+00:00</time>
        <ele>1640.0</ele>
      </trkpt>
      <trkpt lat="47.504645" lon="10.120679">
        <time>1970-01-01T00:00:00+00:00</time>
        <ele>1632.0</ele>
      </trkpt>
      <trkpt lat="47.504566" lon="10.120466">
        <time>1970-01-01T00:00:00+00:00</time>
        <ele>1623.0</ele>
      </trkpt>
      <trkpt lat="47.504597" lon="10.120258">
        <time>1970-01-01T00:00:00+00:00</time>
        <ele>1618.0</ele>
      </trkpt>
      <trkpt lat="47.504524" lon="10.120168">
        <time>1970-01-01T00:00:00+00:00</time>
        <ele>1613.0</ele>
      </trkpt>
      <trkpt lat="47.504505" lon="10.119971">
        <time>1970-01-01T00:00:00+00:00</time>
        <ele>1606.0</ele>
      </trkpt>
      <trkpt lat="47.504389" lon="10.119817">
        <time>1970-01-01T00:00:00+00:00</time>
        <ele>1599.0</ele>
      </trkpt>
      <trkpt lat="47.504307" lon="10.119487">
        <time>1970-01-01T00:00:00+00:00</time>
        <ele>1587.0</ele>
      </trkpt>
      <trkpt lat="47.504235" lon="10.119424">
        <time>1970-01-01T00:00:00+00:00</time>
        <ele>1583.0</ele>
      </trkpt>
      <trkpt lat="47.504219" lon="10.119252">
        <time>1970-01-01T00:00:00+00:00</time>
        <ele>1578.0</ele>
      </trkpt>
      <trkpt lat="47.504139" lon="10.119223">
        <time>1970-01-01T00:00:00+00:00</time>
        <ele>1576.0</ele>
      </trkpt>
      <trkpt lat="47.504194" lon="10.119151">
        <time>1970-01-01T00:00:00+00:00</time>
        <ele>1575.0</ele>
      </trkpt>
      <trkpt lat="47.504002" lon="10.118661">
        <time>1970-01-01T00:00:00+00:00</time>
        <ele>1558.0</ele>
      </trkpt>
      <trkpt lat="47.503818" lon="10.118863">
        <time>1970-01-01T00:00:00+00:00</time>
        <ele>1555.0</ele>
      </trkpt>
      <trkpt lat="47.503702" lon="10.119131">
        <time>1970-01-01T00:00:00+00:00</time>
        <ele>1556.0</ele>
      </trkpt>
      <trkpt lat="47.503572" lon="10.119307">
        <time>1970-01-01T00:00:00+00:00</time>
        <ele>1555.0</ele>
      </trkpt>
      <trkpt lat="47.503445" lon="10.119332">
        <time>1970-01-01T00:00:00+00:00</time>
        <ele>1549.0</ele>
      </trkpt>
      <trkpt lat="47.503286" lon="10.119491">
        <time>1970-01-01T00:00:00+00:00</time>
        <ele>1548.0</ele>
      </trkpt>
      <trkpt lat="47.5031" lon="10.119507">
        <time>1970-01-01T00:00:00+00:00</time>
        <ele>1544.0</ele>
      </trkpt>
      <trkpt lat="47.502707" lon="10.119357">
        <time>1970-01-01T00:00:00+00:00</time>
        <ele>1528.0</ele>
      </trkpt>
      <trkpt lat="47.502527" lon="10.119453">
        <time>1970-01-01T00:00:00+00:00</time>
        <ele>1528.0</ele>
      </trkpt>
      <trkpt lat="47.502476" lon="10.119449">
        <time>1970-01-01T00:00:00+00:00</time>
        <ele>1526.0</ele>
      </trkpt>
      <trkpt lat="47.502594" lon="10.118813">
        <time>1970-01-01T00:00:00+00:00</time>
        <ele>1515.0</ele>
      </trkpt>
      <trkpt lat="47.502452" lon="10.1187">
        <time>1970-01-01T00:00:00+00:00</time>
        <ele>1509.0</ele>
      </trkpt>
      <trkpt lat="47.501867" lon="10.118737">
        <time>1970-01-01T00:00:00+00:00</time>
        <ele>1495.0</ele>
      </trkpt>
      <trkpt lat="47.501773" lon="10.118821">
        <time>1970-01-01T00:00:00+00:00</time>
        <ele>1495.0</ele>
      </trkpt>
      <trkpt lat="47.501421" lon="10.118802">
        <time>1970-01-01T00:00:00+00:00</time>
        <ele>1487.0</ele>
      </trkpt>
      <trkpt lat="47.501081" lon="10.118674">
        <time>1970-01-01T00:00:00+00:00</time>
        <ele>1476.0</ele>
      </trkpt>
      <trkpt lat="47.500988" lon="10.118661">
        <time>1970-01-01T00:00:00+00:00</time>
        <ele>1473.0</ele>
      </trkpt>
      <trkpt lat="47.500954" lon="10.118987">
        <time>1970-01-01T00:00:00+00:00</time>
        <ele>1476.0</ele>
      </trkpt>
      <trkpt lat="47.500876" lon="10.119108">
        <time>1970-01-01T00:00:00+00:00</time>
        <ele>1476.0</ele>
      </trkpt>
      <trkpt lat="47.500738" lon="10.119066">
        <time>1970-01-01T00:00:00+00:00</time>
        <ele>1469.0</ele>
      </trkpt>
      <trkpt lat="47.500611" lon="10.119239">
        <time>1970-01-01T00:00:00+00:00</time>
        <ele>1465.0</ele>
      </trkpt>
      <trkpt lat="47.50042" lon="10.119312">
        <time>1970-01-01T00:00:00+00:00</time>
        <ele>1458.0</ele>
      </trkpt>
      <trkpt lat="47.500251" lon="10.119453">
        <time>1970-01-01T00:00:00+00:00</time>
        <ele>1456.0</ele>
      </trkpt>
      <trkpt lat="47.500194" lon="10.119448">
        <time>1970-01-01T00:00:00+00:00</time>
        <ele>1453.0</ele>
      </trkpt>
      <trkpt lat="47.500141" lon="10.11928">
        <time>1970-01-01T00:00:00+00:00</time>
        <ele>1448.0</ele>
      </trkpt>
      <trkpt lat="47.499996" lon="10.118972">
        <time>1970-01-01T00:00:00+00:00</time>
        <ele>1440.0</ele>
      </trkpt>
      <trkpt lat="47.500003" lon="10.118516">
        <time>1970-01-01T00:00:00+00:00</time>
        <ele>1435.0</ele>
      </trkpt>
      <trkpt lat="47.499957" lon="10.118438">
        <time>1970-01-01T00:00:00+00:00</time>
        <ele>1433.0</ele>
      </trkpt>
      <trkpt lat="47.49971" lon="10.118501">
        <time>1970-01-01T00:00:00+00:00</time>
        <ele>1427.0</ele>
      </trkpt>
      <trkpt lat="47.499522" lon="10.118689">
        <time>1970-01-01T00:00:00+00:00</time>
        <ele>1419.0</ele>
      </trkpt>
      <trkpt lat="47.499353" lon="10.119045">
        <time>1970-01-01T00:00:00+00:00</time>
        <ele>1413.0</ele>
      </trkpt>
      <trkpt lat="47.499257" lon="10.119375">
        <time>1970-01-01T00:00:00+00:00</time>
        <ele>1408.0</ele>
      </trkpt>
      <trkpt lat="47.499003" lon="10.119647">
        <time>1970-01-01T00:00:00+00:00</time>
        <ele>1389.0</ele>
      </trkpt>
      <trkpt lat="47.49896" lon="10.119856">
        <time>1970-01-01T00:00:00+00:00</time>
        <ele>1385.0</ele>
      </trkpt>
      <trkpt lat="47.498936" lon="10.120929">
        <time>1970-01-01T00:00:00+00:00</time>
        <ele>1373.0</ele>
      </trkpt>
      <trkpt lat="47.498911" lon="10.121112">
        <time>1970-01-01T00:00:00+00:00</time>
        <ele>1372.0</ele>
      </trkpt>
      <trkpt lat="47.498819" lon="10.12119">
        <time>1970-01-01T00:00:00+00:00</time>
        <ele>1369.0</ele>
      </trkpt>
      <trkpt lat="47.498745" lon="10.121086">
        <time>1970-01-01T00:00:00+00:00</time>
        <ele>1366.0</ele>
      </trkpt>
      <trkpt lat="47.498602" lon="10.120455">
        <time>1970-01-01T00:00:00+00:00</time>
        <ele>1364.0</ele>
      </trkpt>
      <trkpt lat="47.49843" lon="10.12006">
        <time>1970-01-01T00:00:00+00:00</time>
        <ele>1361.0</ele>
      </trkpt>
      <trkpt lat="47.49825" lon="10.119856">
        <time>1970-01-01T00:00:00+00:00</time>
        <ele>1365.0</ele>
      </trkpt>
      <trkpt lat="47.498205" lon="10.119833">
        <time>1970-01-01T00:00:00+00:00</time>
        <ele>1366.0</ele>
      </trkpt>
      <trkpt lat="47.498158" lon="10.119725">
        <time>1970-01-01T00:00:00+00:00</time>
        <ele>1367.0</ele>
      </trkpt>
      <trkpt lat="47.498094" lon="10.119456">
        <time>1970-01-01T00:00:00+00:00</time>
        <ele>1366.0</ele>
      </trkpt>
      <trkpt lat="47.498058" lon="10.119225">
        <time>1970-01-01T00:00:00+00:00</time>
        <ele>1365.0</ele>
      </trkpt>
      <trkpt lat="47.498095" lon="10.118892">
        <time>1970-01-01T00:00:00+00:00</time>
        <ele>1365.0</ele>
      </trkpt>
      <trkpt lat="47.498034" lon="10.118753">
        <time>1970-01-01T00:00:00+00:00</time>
        <ele>1361.0</ele>
      </trkpt>
      <trkpt lat="47.497952" lon="10.118621">
        <time>1970-01-01T00:00:00+00:00</time>
        <ele>1356.0</ele>
      </trkpt>
      <trkpt lat="47.497909" lon="10.118445">
        <time>1970-01-01T00:00:00+00:00</time>
        <ele>1351.0</ele>
      </trkpt>
      <trkpt lat="47.497875" lon="10.118375">
        <time>1970-01-01T00:00:00+00:00</time>
        <ele>1349.0</ele>
      </trkpt>
      <trkpt lat="47.497802" lon="10.118301">
        <time>1970-01-01T00:00:00+00:00</time>
        <ele>1345.0</ele>
      </trkpt>
      <trkpt lat="47.497667" lon="10.118407">
        <time>1970-01-01T00:00:00+00:00</time>
        <ele>1339.0</ele>
      </trkpt>
      <trkpt lat="47.497525" lon="10.118768">
        <time>1970-01-01T00:00:00+00:00</time>
        <ele>1333.0</ele>
      </trkpt>
      <trkpt lat="47.497352" lon="10.119312">
        <time>1970-01-01T00:00:00+00:00</time>
        <ele>1326.0</ele>
      </trkpt>
      <trkpt lat="47.497027" lon="10.120002">
        <time>1970-01-01T00:00:00+00:00</time>
        <ele>1311.0</ele>
      </trkpt>
      <trkpt lat="47.496956" lon="10.120248">
        <time>1970-01-01T00:00:00+00:00</time>
        <ele>1307.0</ele>
      </trkpt>
      <trkpt lat="47.496885" lon="10.120254">
        <time>1970-01-01T00:00:00+00:00</time>
        <ele>1303.0</ele>
      </trkpt>
      <trkpt lat="47.496769" lon="10.119992">
        <time>1970-01-01T00:00:00+00:00</time>
        <ele>1299.0</ele>
      </trkpt>
      <trkpt lat="47.496581" lon="10.119683">
        <time>1970-01-01T00:00:00+00:00</time>
        <ele>1290.0</ele>
      </trkpt>
      <trkpt lat="47.496482" lon="10.119458">
        <time>1970-01-01T00:00:00+00:00</time>
        <ele>1285.0</ele>
      </trkpt>
      <trkpt lat="47.49644" lon="10.119034">
        <time>1970-01-01T00:00:00+00:00</time>
        <ele>1284.0</ele>
      </trkpt>
      <trkpt lat="47.496245" lon="10.118872">
        <time>1970-01-01T00:00:00+00:00</time>
        <ele>1278.0</ele>
      </trkpt>
      <trkpt lat="47.496189" lon="10.118972">
        <time>1970-01-01T00:00:00+00:00</time>
        <ele>1274.0</ele>
      </trkpt>
      <trkpt lat="47.496136" lon="10.120489">
        <time>1970-01-01T00:00:00+00:00</time>
        <ele>1258.0</ele>
      </trkpt>
      <trkpt lat="47.496306" lon="10.121242">
        <time>1970-01-01T00:00:00+00:00</time>
        <ele>1257.0</ele>
      </trkpt>
      <trkpt lat="47.496171" lon="10.121855">
        <time>1970-01-01T00:00:00+00:00</time>
        <ele>1252.0</ele>
      </trkpt>
      <trkpt lat="47.496161" lon="10.122035">
        <time>1970-01-01T00:00:00+00:00</time>
        <ele>1251.0</ele>
      </trkpt>
      <trkpt lat="47.496221" lon="10.122797">
        <time>1970-01-01T00:00:00+00:00</time>
        <ele>1247.0</ele>
      </trkpt>
      <trkpt lat="47.496203" lon="10.12385">
        <time>1970-01-01T00:00:00+00:00</time>
        <ele>1238.0</ele>
      </trkpt>
      <trkpt lat="47.496259" lon="10.124142">
        <time>1970-01-01T00:00:00+00:00</time>
        <ele>1236.0</ele>
      </trkpt>
      <trkpt lat="47.496259" lon="10.124446">
        <time>1970-01-01T00:00:00+00:00</time>
        <ele>1233.0</ele>
      </trkpt>
      <trkpt lat="47.4963" lon="10.124931">
        <time>1970-01-01T00:00:00+00:00</time>
        <ele>1226.0</ele>
      </trkpt>
      <trkpt lat="47.496365" lon="10.125411">
        <time>1970-01-01T00:00:00+00:00</time>
        <ele>1220.0</ele>
      </trkpt>
      <trkpt lat="47.496287" lon="10.126044">
        <time>1970-01-01T00:00:00+00:00</time>
        <ele>1210.0</ele>
      </trkpt>
      <trkpt lat="47.496357" lon="10.126521">
        <time>1970-01-01T00:00:00+00:00</time>
        <ele>1204.0</ele>
      </trkpt>
      <trkpt lat="47.496336" lon="10.127075">
        <time>1970-01-01T00:00:00+00:00</time>
        <ele>1196.0</ele>
      </trkpt>
      <trkpt lat="47.496486" lon="10.127752">
        <time>1970-01-01T00:00:00+00:00</time>
        <ele>1187.0</ele>
      </trkpt>
      <trkpt lat="47.496551" lon="10.128089">
        <time>1970-01-01T00:00:00+00:00</time>
        <ele>1177.0</ele>
      </trkpt>
      <trkpt lat="47.49661" lon="10.128296">
        <time>1970-01-01T00:00:00+00:00</time>
        <ele>1170.0</ele>
      </trkpt>
      <trkpt lat="47.496635" lon="10.128866">
        <time>1970-01-01T00:00:00+00:00</time>
        <ele>1156.0</ele>
      </trkpt>
      <trkpt lat="47.496691" lon="10.129227">
        <time>1970-01-01T00:00:00+00:00</time>
        <ele>1150.0</ele>
      </trkpt>
      <trkpt lat="47.4968" lon="10.130363">
        <time>1970-01-01T00:00:00+00:00</time>
        <ele>1122.0</ele>
      </trkpt>
      <trkpt lat="47.496903" lon="10.130729">
        <time>1970-01-01T00:00:00+00:00</time>
        <ele>1117.0</ele>
      </trkpt>
      <trkpt lat="47.497112" lon="10.131807">
        <time>1970-01-01T00:00:00+00:00</time>
        <ele>1090.0</ele>
      </trkpt>
      <trkpt lat="47.497189" lon="10.132037">
        <time>1970-01-01T00:00:00+00:00</time>
        <ele>1087.0</ele>
      </trkpt>
      <trkpt lat="47.497246" lon="10.132853">
        <time>1970-01-01T00:00:00+00:00</time>
        <ele>1075.0</ele>
      </trkpt>
      <trkpt lat="47.497193" lon="10.133355">
        <time>1970-01-01T00:00:00+00:00</time>
        <ele>1069.0</ele>
      </trkpt>
      <trkpt lat="47.497221" lon="10.133607">
        <time>1970-01-01T00:00:00+00:00</time>
        <ele>1069.0</ele>
      </trkpt>
      <trkpt lat="47.497179" lon="10.133962">
        <time>1970-01-01T00:00:00+00:00</time>
        <ele>1066.0</ele>
      </trkpt>
      <trkpt lat="47.497037" lon="10.134276">
        <time>1970-01-01T00:00:00+00:00</time>
        <ele>1059.0</ele>
      </trkpt>
      <trkpt lat="47.496942" lon="10.134758">
        <time>1970-01-01T00:00:00+00:00</time>
        <ele>1052.0</ele>
      </trkpt>
      <trkpt lat="47.496808" lon="10.135062">
        <time>1970-01-01T00:00:00+00:00</time>
        <ele>1050.0</ele>
      </trkpt>
      <trkpt lat="47.496581" lon="10.13537">
        <time>1970-01-01T00:00:00+00:00</time>
        <ele>1048.0</ele>
      </trkpt>
      <trkpt lat="47.495645" lon="10.136266">
        <time>1970-01-01T00:00:00+00:00</time>
        <ele>1045.0</ele>
      </trkpt>
      <trkpt lat="47.495483" lon="10.136422">
        <time>1970-01-01T00:00:00+00:00</time>
        <ele>1045.0</ele>
      </trkpt>
      <trkpt lat="47.49513" lon="10.13676">
        <time>1970-01-01T00:00:00+00:00</time>
        <ele>1044.0</ele>
      </trkpt>
      <trkpt lat="47.495079" lon="10.136702">
        <time>1970-01-01T00:00:00+00:00</time>
        <ele>1044.0</ele>
      </trkpt>
      <trkpt lat="47.494971" lon="10.1369">
        <time>1970-01-01T00:00:00+00:00</time>
        <ele>1044.0</ele>
      </trkpt>
      <trkpt lat="47.494905" lon="10.136979">
        <time>1970-01-01T00:00:00+00:00</time>
        <ele>1044.0</ele>
      </trkpt>
    </trkseg>
  </trk>
</gpx>
